{"data":{"norad_id":58105,"epoch":"2026-05-25T00:45:42.727392Z","epoch_age_seconds":68337,"freshness":"FRESH","line1":"1 58105U 23161J   26145.03174453  .00000133  00000+0  15391-4 0  9996","line2":"2 58105  53.1624 157.7181 0001330  88.1752 271.9403 15.33547185146289","mean_motion":15.33547185,"eccentricity":0.000133,"inclination_deg":53.1624,"raan_deg":157.7181,"arg_perigee_deg":88.1752,"mean_anomaly_deg":271.9403,"bstar":1.5391e-5,"rev_number":14628,"period_min":93.899947395489,"perigee_km":464.32899166424,"apogee_km":466.14932972298,"semimajor_km":6843.3761606936,"source":"CELESTRAK","updated_at":"2026-05-25T13:38:18.527635Z"}}